Location: Diebersbach
(48.5163°N, 8.0558°E)
Time: 08:53:50
(UTC+00:00)

USA 308 - Pass Details

Date: 20 June 2021
Orbit: 566 x 576 km, 54.0° (Epoch: 13 July)

Event Time Altitude Azimuth Distance (km) Brightness Sun altitude
Exits shadow 02:28:03 - 250° (WSW) 2,132 5.3 -7.7°
Reaches altitude 10° 02:28:44 10° 251° (WSW) 1,861 5.0 -7.6°
Maximum altitude 02:32:57 71° 335° (NNW) 604 3.1 -7.2°
Drops below altitude 10° 02:37:12 10° 60° (ENE) 1,867 7.0 -6.7°
Sets 02:39:28 0° 63° (ENE) 2,766 8.0 -6.5°
